Location: Unspecified
(44.0704°N, 88.6889°W)
Time: 00:42:44
(UTC+02:00)

ISS - Pass Details

Date: 29 March 2019
Orbit: 408 x 410 km, 51.6° (Epoch: 24 April)

Event Time Altitude Azimuth Distance (km) Brightness Sun altitude
Rises 03:04:49 0° 291° (WNW) 2,337 1.7 -19.5°
Reaches altitude 10° 03:07:15 10° 308° (NW) 1,475 0.2 -19.9°
Maximum altitude 03:09:51 21° 0° (N) 978 -1.7 -20.3°
Enters shadow 03:10:43 19° 23° (NNE) 1,043 -1.8 -20.4°
